Location: Chimay
(50.0486°N, 4.3171°E)
Time: 05:34:59
(UTC+00:00)

Cosmos 1486 Rocket - Pass Details

Date: 08 August 2020
Orbit: 759 x 783 km, 74.1° (Epoch: 19 September)

Event Time Altitude Azimuth Distance (km) Brightness Sun altitude
Exits shadow 23:52:07 62° 225° (SW) 854 3.9 -24.2°
Maximum altitude 23:52:57 80° 294° (WNW) 779 3.9 -24.2°
Drops below altitude 10° 23:58:11 10° 22° (NNE) 2,301 7.4 -24.1°
Sets 00:00:34 0° 24° (NNE) 3,230 8.4 -24.1°
